TimeMST,TemperatureF,Dew PointF,Humidity,Sea Level PressureIn,VisibilityMPH,Wind Direction,Wind SpeedMPH,Gust SpeedMPH,PrecipitationIn,Events,Conditions,WindDirDegrees,DateUTC
12:53 AM,73.9,39.0,28,29.63,10.0,SW,6.9,-,N/A,,Clear,230,2013-04-08 07:53:00
1:53 AM,71.1,39.0,31,29.62,10.0,NE,3.5,-,N/A,,Clear,40,2013-04-08 08:53:00
2:53 AM,70.0,39.0,32,29.59,10.0,Calm,Calm,-,N/A,,Clear,0,2013-04-08 09:53:00
3:53 AM,64.9,41.0,42,29.58,10.0,Calm,Calm,-,N/A,,Clear,0,2013-04-08 10:53:00
4:53 AM,64.9,37.9,37,29.56,10.0,Calm,Calm,-,N/A,,Clear,0,2013-04-08 11:53:00
5:53 AM,63.0,37.9,40,29.55,10.0,Calm,Calm,-,N/A,,Clear,0,2013-04-08 12:53:00
6:53 AM,64.0,37.0,37,29.54,10.0,ESE,3.5,-,N/A,,Clear,120,2013-04-08 13:53:00
7:53 AM,66.9,37.0,33,29.53,10.0,SSE,6.9,-,N/A,,Clear,150,2013-04-08 14:53:00
8:53 AM,71.1,37.9,30,29.50,10.0,South,12.7,21.9,N/A,,Clear,170,2013-04-08 15:53:00
9:53 AM,73.9,39.0,28,29.49,10.0,South,9.2,23.0,N/A,,Clear,180,2013-04-08 16:53:00
10:17 AM,75.2,37.4,25,29.54,4.0,SSW,15.0,26.5,N/A,,Haze,200,2013-04-08 17:17:00
10:53 AM,77.0,37.0,24,29.46,10.0,SW,12.7,26.5,N/A,,Mostly Cloudy,220,2013-04-08 17:53:00
11:53 AM,80.1,35.1,20,29.42,10.0,WSW,21.9,31.1,N/A,,Clear,240,2013-04-08 18:53:00
12:53 PM,80.1,32.0,17,29.41,8.0,SW,26.5,39.1,N/A,,Partly Cloudy,220,2013-04-08 19:53:00
1:29 PM,78.8,33.8,20,29.46,5.0,WSW,19.6,39.1,N/A,,Haze,240,2013-04-08 20:29:00
1:53 PM,78.1,36.0,22,29.39,5.0,WSW,16.1,36.8,N/A,,Haze,250,2013-04-08 20:53:00
2:29 PM,78.8,39.2,24,29.43,4.0,WSW,21.9,41.4,N/A,,Haze,240,2013-04-08 21:29:00
2:53 PM,78.1,39.0,25,29.36,5.0,WSW,21.9,33.4,N/A,,Haze,250,2013-04-08 21:53:00
3:27 PM,77.0,37.4,24,29.40,3.0,WSW,23.0,40.3,N/A,,Haze,240,2013-04-08 22:27:00
3:53 PM,75.9,37.0,24,29.34,5.0,WSW,20.7,33.4,N/A,,Haze,250,2013-04-08 22:53:00
4:35 PM,75.2,39.2,27,29.40,7.0,SW,13.8,21.9,0.00,Rain,Light Rain,220,2013-04-08 23:35:00
4:53 PM,75.9,37.0,24,29.34,7.0,WSW,15.0,26.5,0.00,,Overcast,240,2013-04-08 23:53:00
5:27 PM,66.2,50.0,56,29.43,4.0,Variable,5.8,-,0.03,Rain-Thunderstorm,Light Rain,0,2013-04-09 00:27:00
5:42 PM,66.2,48.2,52,29.42,7.0,WNW,8.1,-,0.05,Rain,Light Rain,300,2013-04-09 00:42:00
5:53 PM,66.9,45.0,45,29.37,10.0,Variable,5.8,-,0.05,Rain,Light Rain,0,2013-04-09 00:53:00
6:53 PM,63.0,41.0,45,29.41,6.0,West,12.7,25.3,0.02,Rain,Rain,270,2013-04-09 01:53:00
7:53 PM,61.0,39.9,46,29.44,8.0,Variable,6.9,-,0.02,Rain,Light Rain,0,2013-04-09 02:53:00
8:53 PM,57.9,39.0,49,29.47,10.0,NNW,8.1,16.1,0.01,Rain,Light Rain,330,2013-04-09 03:53:00
9:53 PM,57.9,37.9,47,29.46,10.0,Calm,Calm,-,0.00,,Overcast,0,2013-04-09 04:53:00
10:53 PM,55.9,41.0,57,29.49,10.0,ESE,4.6,-,N/A,,Mostly Cloudy,120,2013-04-09 05:53:00
11:53 PM,54.0,42.1,64,29.50,10.0,SSE,8.1,-,0.00,,Overcast,150,2013-04-09 06:53:00